Location: Rancho Del Sol Observatory
(38.7214°N, 120.6350°W)
Time: 06:39:32
(UTC-08:00)

Courier 1B Rocket - Pass Details

Date: 30 January 2020
Orbit: 920 x 1202 km, 28.2° (Epoch: 29 February)

Event Time Altitude Azimuth Distance (km) Brightness Sun altitude
Rises 08:30:01 0° 222° (SW) 4,085 8.2 12.8°
Reaches altitude 10° 08:33:33 10° 208° (SSW) 3,113 7.8 13.3°
Maximum altitude 08:39:19 23° 160° (SSE) 2,259 8.1 14.2°
Drops below altitude 10° 08:44:55 10° 112° (ESE) 3,021 9.4 15.1°
Sets 08:48:16 0° 98° (E) 3,938 9.2 15.6°
